SCP
0 0 0 0 0 0 0 0 0 0 0 0 0 0 0 0 0 0 0 0 0 0 0 0 0 0 0 0 0 0 0 0 0 0 0 0 0 0 0 0 0 0 0 0 0 0 0 0 0
0 0 0 0 0 0 0 0 0 0 0 0 0 0 0 0 0 0 0 0 0 0 0 0 0 0 0 0 0 0 0 0 0 0 0 0 0 0 0 0 0 0 0 0 0 0 0 0 0
0 0 0 0 0 0 0 0 0 0 0 0 0 0 0 0 0 0 0 0 0 0 0 0 0 0 0 0 0 0 0 0 0 0 0 0 0 0 0 0 0 0 0 0 0 0 0 0 0
0 0 0 0 0 0 0 0 0 0 0 0 0 0 0 0 0 0 0 0 0 0 0 0 0 0 0 0 0 0 0 0 0 0 0 0 0 0 0 0 0 0 0 0 0 0 0 0 0
0 0 0 0 0 0 0 0 0 0 0 0 0 0 0 0 0 0 0 0 0 0 0 0 0 0 0 0 0 0 0 0 0 0 0 0 0 0 0 0 0 0 0 0 0 0 0 0 0
0 0 0 0 0 0 0 0 0 0 0 0 0 0 0 0 0 0 0 0 0 0 0 0 0 0 0 0 0 0 0 0 0 0 0 0 0 0 0 0 0 0 0 0 0 0 0 0 0
0 0 0 0 0 0 0 0 0 0 0 0 0 0 0 0 0 0 0 0 0 0 0 0 0 0 0 0 0 0 0 0 0 0 0 0 0 0 0 0 0 0 0 0 0 0 0 0 0
0 0 0 0 0 0 0 0 0 0 0 0 0 0 0 0 0 0 0 0 0 0 0 0 0 0 0 0 0 0 0 0 0 0 0 0 0 0 0 0 0 0 0 0 0 0 0 0 0
0 0 0 0 0 0 0 0 0 0 0 0 0 0 0 0 0 0 0 0 0 0 0 0 0 0 0 0 0 0 0 0 0 0 0 0 0 0 0 0 0 0 0 0 0 0 0 0 0
0 0 0 0 0 0 0 0 0 0 0 0 0 0 0 0 0 0 0 0 0 0 0 0 0 0 0 0 0 0 0 0 0 0 0 0 0 0 0 0 0 0 0 0 0 0 0 0 0
0 0 0 0 0 0 0 0 0 0 0 0 0 0 0 0 0 0 0 0 0 0 0 0 0 0 0 0 0 0 0 0 0 0 0 0 0 0 0 0 0 0 0 0 0 0 0 0 0
0 0 0 0 0 0 0 0 0 0 0 0 0 0 0 0 0 0 0 0 0 0 0 0 0 0 0 0 0 0 0 0 0 0 0 0 0 0 0 0 0 0 0 0 0 0 0 0 0
0 0 0 0 0 0 0 0 0 0 0 0 0 0 0 0 0 0 0 0 0 0 0 0 0 0 0 0 0 0 0 0 0 0 0 0 0 0 0 0 0 0 0 0 0 0 0 0 0
0 0 0 0 0 0 0 0 0 0 0 0 0 0 0 0 0 0 0 0 0 0 0 0 0 0 0 0 0 0 0 0 0 0 0 0 0 0 0 0 0 0 0 0 0 0 0 0 0
0 0 0 0 0 0 0 0 0 0 0 0 0 0 0 0 0 0 0 0 0 0 0 0 0 0 0 0 0 0 0 0 0 0 0 0 0 0 0 0 0 0 0 0 0 0 0 0 0
0 0 0 0 0 0 0 0 0 0 0 0 0 0 0 0 0 0 0 0 0 0 0 0 0 0 0 0 0 0 0 0 0 0 0 0 0 0 0 0 0 0 0 0 0 0 0 0 0
0 0 0 0 0 0 0 0 0 0 0 0 0 0 0 0 0 0 0 0 0 0 0 0 0 0 0 0 0 0 0 0 0 0 0 0 0 0 0 0 0 0 0 0 0 0 0 0 0
0 0 0 0 0 0 0 0 0 0 0 0 0 0 0 0 0 0 0 0 0 0 0 0 0 0 0 0 0 0 0 0 0 0 0 0 0 0 0 0 0 0 0 0 0 0 0 0 0
0 0 0 0 0 0 0 0 0 0 0 0 0 0 0 0 0 0 0 0 0 0 0 0 0 0 0 0 0 0 0 0 0 0 0 0 0 0 0 0 0 0 0 0 0 0 0 0 0
0 0 0 0 0 0 0 0 0 0 0 0 0 0 0 0 0 0 0 0 0 0 0 0 0 0 0 0 0 0 0 0 0 0 0 0 0 0 0 0 0 0 0 0 0 0 0 0 0
0 0 0 0 0 0 0 0 0 0 0 0 0 0 0 0 0 0 0 0 0 0 0 0 0 0 0 0 0 0 0 0 0 0 0 0 0 0 0 0 0 0 0 0 0 0 0 0 0
0 0 0 0 0 0 0 0 0 0 0 0 0 0 0 0 0 0 0 0 0 0 0 0 0 0 0 0 0 0 0 0 0 0 0 0 0 0 0 0 0 0 0 0 0 0 0 0 0
0 0 0 0 0 0 0 0 0 0 0 0 0 0 0 0 0 0 0 0 0 0 0 0 0 0 0 0 0 0 0 0 0 0 0 0 0 0 0 0 0 0 0 0 0 0 0 0 0
0 0 0 0 0 0 0 0 0 0 0 0 0 0 0 0 0 0 0 0 0 0 0 0 0 0 0 0 0 0 0 0 0 0 0 0 0 0 0 0 0 0 0 0 0 0 0 0 0
0 0 0 0 0 0 0 0 0 0 0 0 0 0 0 0 0 0 0 0 0 0 0 0 0 0 0 0 0 0 0 0 0 0 0 0 0 0 0 0 0 0 0 0 0 0 0 0 0
0 0 0 0 0 -0 -0 -0 -0 0 0 0 0 0 0 0 0 0 0 0 0 0 0 0 0 0 0 0 0 0 0 0 0 0 0 0 0 0 0 0 0 0 0 0 0 0 0 0 0
0 0 0 0 0 -0 -0 -0 -0 0 0 0 0 0 0 0 0 0 0 0 0 0 0 0 0 0 0 0 0 0 0 0 0 0 0 0 0 0 0 0 0 0 0 0 0 0 0 0 0
0 0 0 0 0 0 -0 -0 0 0 0 0 0 0 0 0 0 0 0 0 0 0 0 0 0 0 0 0 0 0 0 0 0 0 0 0 0 0 0 0 0 0 0 0 0 0 0 0 0
0 0 0 0 0 0 0 0 0 0 0 0 0 0 0 0 0 0 0 0 0 0 0 0 0 0 0 0 0 0 0 0 0 0 0 0 0 0 0 0 0 0 0 0 0 0 0 0 0
0 0 0 0 0 0 0 0 0 0 0 0 0 0 0 0 0 0 0 0 0 0 0 0 0 0 0 0 0 0 0 0 0 0 0 0 0 0 0 0 0 0 0 0 0 0 0 0 0
Wind_Speed
14 8 1 4 6 5 1 2 0 2 4 4 7 10 9 6 4 5 1 4 5 5 4 5 6 8 8 8 9 9 9 9 9 10 10 10 9 9 9 9 9 9 10 10 10 10 9 8 8
7 4 4 5 5 3 1 2 2 1 4 4 7 8 8 7 4 5 3 3 5 5 4 5 7 8 9 9 8 8 9 8 9 9 9 9 9 9 8 8 8 8 9 9 9 8 8 8 7
5 1 5 5 3 3 2 1 3 3 5 4 6 6 6 4 3 2 1 4 6 6 5 5 8 9 9 9 9 9 9 8 9 9 9 8 9 9 8 8 8 8 8 8 7 7 7 6 7
3 4 5 5 2 1 2 1 1 3 5 6 6 7 5 5 2 2 4 6 7 6 5 6 9 10 10 10 10 9 9 9 9 8 8 8 8 8 8 8 7 7 7 7 7 6 6 6 6
3 5 5 2 1 0 1 1 3 4 3 4 6 7 4 5 6 6 6 7 7 6 5 6 9 10 10 10 10 10 9 9 9 9 8 8 8 8 8 8 7 6 6 5 5 5 5 5 5
4 4 4 3 2 1 1 3 3 4 3 3 5 6 4 4 6 6 6 7 7 6 5 5 8 9 9 10 10 9 9 9 9 9 8 8 8 7 7 7 7 6 5 4 4 4 3 4 4
4 4 4 4 3 1 0 2 3 3 4 3 3 6 4 3 4 5 6 7 7 7 6 5 5 6 8 9 9 9 8 8 8 8 8 8 7 7 6 6 6 6 6 5 4 4 3 3 4
3 5 2 3 4 2 0 2 2 4 3 3 4 7 4 1 3 6 7 7 7 7 6 6 6 5 5 5 7 8 8 8 8 8 7 7 6 6 6 5 5 5 5 5 5 4 3 3 4
4 4 2 3 5 3 1 2 2 4 6 6 5 4 4 6 7 8 7 6 6 6 5 5 5 5 5 4 5 6 7 7 6 5 6 5 3 3 3 5 6 6 6 6 6 5 5 4 4
4 3 3 1 3 5 4 4 3 4 5 5 6 6 7 7 8 8 7 5 5 4 4 4 4 4 4 4 3 3 4 4 4 4 3 3 2 2 3 4 5 6 6 6 6 6 5 4 2
3 4 3 2 3 5 5 4 4 5 4 3 4 6 6 7 7 7 6 4 4 3 3 3 3 3 3 3 3 2 2 3 3 4 4 3 2 2 2 2 3 3 4 4 5 5 3 3 2
4 3 2 2 2 3 3 3 5 4 3 3 4 7 7 7 6 5 5 4 3 3 3 3 3 3 3 3 2 2 2 2 3 3 4 3 2 3 2 2 2 2 2 3 3 3 3 3 3
4 3 5 5 6 6 6 5 5 3 3 5 7 7 7 6 5 4 4 4 3 3 3 3 3 3 3 3 2 3 3 3 2 3 3 3 2 2 2 2 2 2 2 2 3 3 3 3 3
4 5 4 3 4 3 6 3 3 2 4 6 6 5 5 5 5 4 4 4 3 2 2 2 3 3 3 3 3 2 2 2 2 3 4 3 2 2 2 2 2 3 2 2 2 3 3 3 3
4 5 3 2 1 2 5 4 1 3 5 5 4 3 4 3 4 3 3 3 2 2 2 2 3 3 3 3 3 2 2 2 2 2 3 3 3 2 2 2 2 3 2 2 2 3 3 3 3
2 3 1 2 1 0 4 3 2 3 5 4 3 2 3 2 3 2 2 2 2 2 2 2 2 2 3 2 2 2 2 2 2 2 2 3 3 3 2 2 2 3 2 2 2 2 3 3 3
2 2 2 1 2 1 3 3 3 4 5 4 3 3 3 2 1 1 2 2 2 2 1 1 2 2 2 2 2 2 1 2 2 2 2 3 4 3 2 2 2 2 2 2 2 3 2 3 4
3 2 1 1 1 1 2 3 3 4 5 5 4 3 3 3 2 1 2 2 2 2 2 2 2 2 2 2 2 1 2 2 2 2 3 3 3 4 3 2 3 3 2 2 3 3 3 2 3
3 3 1 2 1 1 2 3 4 4 4 4 4 4 3 3 1 2 2 2 3 3 3 2 2 2 2 2 2 1 2 2 2 2 3 4 4 4 3 3 3 3 3 3 2 2 3 3 3
3 2 1 2 1 0 1 3 3 5 5 6 6 5 4 2 1 1 2 2 2 2 2 2 2 1 1 1 1 1 1 1 1 2 3 3 3 3 3 3 3 3 2 3 3 3 2 3 4
1 2 3 2 3 2 1 4 3 2 2 2 3 3 3 4 3 2 1 1 1 1 1 1 1 2 1 1 2 2 2 1 2 2 3 3 3 3 3 3 3 3 3 2 3 2 1 1 2
1 2 3 2 0 1 1 3 5 3 3 4 4 4 4 3 3 3 2 1 1 1 0 1 1 1 1 1 1 1 1 1 2 2 2 3 3 3 3 3 2 3 2 3 3 2 1 1 1
3 2 2 2 1 1 1 2 6 2 5 6 6 6 5 5 4 3 2 2 2 1 0 0 1 1 2 1 1 1 1 0 1 1 2 2 3 3 3 3 3 3 2 2 3 2 2 1 0
1 2 2 2 2 2 3 3 7 5 7 6 6 6 6 5 4 3 2 2 1 0 1 1 1 1 2 2 2 1 1 1 1 2 2 2 2 2 3 3 3 3 2 2 2 2 2 2 1
3 4 3 4 2 5 2 3 9 5 5 7 7 6 5 4 4 3 2 2 1 0 0 1 1 2 2 2 2 1 1 0 1 1 2 2 2 2 3 3 3 3 3 3 2 2 2 2 2
0 4 5 4 3 4 2 6 7 3 3 3 4 4 4 4 4 3 3 2 2 1 1 1 1 1 1 1 2 1 1 1 1 1 1 2 2 2 3 3 3 3 3 3 3 2 2 2 2
1 1 2 4 1 2 5 6 7 1 0 1 2 3 4 4 4 3 3 3 2 2 1 2 1 0 1 1 1 1 1 1 1 1 1 1 2 2 3 3 3 3 3 3 3 2 3 3 3
1 2 3 3 2 3 5 5 4 3 3 2 2 3 4 4 4 3 3 3 2 2 1 1 1 0 1 1 1 1 1 1 1 1 1 1 2 2 3 3 3 4 4 4 3 3 3 3 3
0 1 2 2 3 3 3 7 4 3 3 4 4 3 4 4 4 4 3 3 2 1 1 1 1 0 1 1 1 1 1 1 1 1 1 1 1 2 2 3 3 3 4 4 3 3 3 3 3
2 2 3 3 3 2 2 8 3 2 3 2 2 2 2 3 3 2 2 2 1 1 0 0 0 0 1 1 1 1 1 1 1 1 1 1 2 2 2 2 3 3 4 4 3 3 4 3 4
Wind_Direction
328 322 0 51 56 56 63 296 166 63 62 58 70 84 88 72 74 106 55 81 92 105 94 86 75 80 81 84 88 90 91 89 86 83 81 81 83 84 86 84 80 80 79 77 74 73 69 66 63
320 331 42 54 82 91 312 297 72 60 136 125 70 69 73 64 49 80 50 71 101 102 88 81 74 81 82 80 83 89 88 91 88 84 81 79 80 79 80 81 79 77 77 77 73 70 67 63 57
317 34 67 67 95 157 177 309 117 80 62 77 78 56 72 66 46 46 48 108 95 89 79 74 73 81 83 81 77 78 80 83 85 84 80 80 79 77 76 76 75 73 73 72 69 65 62 58 51
24 45 60 76 117 217 166 259 88 76 42 37 93 74 66 36 24 50 99 102 93 82 74 74 70 75 79 79 77 75 75 76 79 80 78 78 77 75 76 71 69 69 68 67 64 59 54 51 43
58 75 76 90 192 130 46 359 50 69 69 36 82 95 68 10 50 84 96 96 95 82 74 78 68 67 70 74 76 74 72 71 71 73 72 70 69 69 70 68 63 60 61 64 60 53 50 48 40
60 78 108 173 191 168 9 9 53 58 66 52 77 101 87 22 56 79 88 88 90 87 74 71 65 63 63 66 66 67 68 68 68 66 64 64 64 62 62 62 61 54 48 50 52 41 34 39 32
103 104 148 168 173 199 282 24 62 82 62 37 86 103 109 28 54 81 85 82 77 75 72 61 58 59 58 60 60 58 60 60 60 58 58 56 54 53 49 49 51 49 38 29 26 24 19 17 19
117 106 132 171 166 188 324 54 57 68 73 23 64 114 142 178 84 86 83 77 74 67 64 55 48 48 48 55 53 54 56 55 53 51 51 50 49 45 40 37 38 38 30 19 15 6 0 358 359
83 91 171 185 164 160 104 89 45 50 78 55 51 89 125 121 102 89 79 69 70 63 57 56 48 43 41 47 48 48 51 48 47 44 43 47 39 36 32 26 25 24 21 15 10 3 353 345 342
79 137 194 175 147 133 91 87 101 70 62 60 59 65 93 102 105 99 94 87 79 69 56 53 51 46 44 43 45 35 36 35 34 31 29 33 32 26 28 15 16 17 14 8 7 0 353 344 332
94 142 139 84 107 111 94 68 51 107 77 95 120 118 110 102 101 101 100 102 98 90 65 48 46 50 51 45 46 34 29 27 23 24 21 19 26 19 18 13 4 2 7 2 359 360 353 343 330
92 58 87 89 80 86 93 96 67 68 118 106 120 126 116 113 113 115 113 103 92 83 61 49 47 50 48 52 53 45 35 30 23 14 17 26 27 19 10 13 358 3 2 356 356 353 344 340 335
90 87 75 85 76 84 85 83 99 82 102 98 98 103 112 113 108 96 94 92 85 81 60 55 54 50 44 50 44 48 35 29 21 15 15 24 30 23 12 360 357 356 354 355 351 348 340 336 332
108 101 86 83 81 76 91 70 95 144 123 108 108 114 121 120 117 102 85 78 65 65 73 72 69 58 51 49 42 42 35 24 25 23 14 17 23 24 22 8 357 349 342 342 345 344 334 325 328
99 86 46 16 69 131 98 47 92 166 135 122 124 127 122 121 113 113 120 109 98 75 67 67 84 66 61 57 49 44 32 29 29 20 12 18 23 19 15 11 356 338 328 336 349 349 350 341 338
65 72 76 341 53 113 120 204 196 167 140 146 149 142 136 135 134 135 136 123 118 101 79 62 62 70 68 61 53 45 33 27 20 13 12 12 11 15 11 4 348 333 335 342 354 355 352 348 339
55 139 178 319 353 101 144 203 202 188 164 171 169 162 148 132 117 134 133 130 123 117 101 72 60 68 67 66 59 42 35 29 16 12 13 9 7 3 2 352 337 334 340 353 0 1 352 344 336
168 164 175 212 329 76 164 221 211 198 180 181 180 180 167 155 166 134 102 86 81 77 66 57 58 60 57 57 54 47 40 30 21 17 11 6 7 4 2 355 351 349 1 4 1 357 359 346 328
130 133 160 230 268 25 211 237 232 207 189 192 190 185 180 180 170 88 73 77 74 61 52 42 47 47 48 31 18 7 4 8 17 19 17 14 11 11 13 3 357 4 12 358 352 348 4 2 350
117 129 245 304 341 18 251 274 246 215 207 197 194 196 193 176 117 78 60 56 67 70 51 42 30 28 37 9 350 347 355 24 17 3 13 13 9 9 15 10 2 356 359 8 2 8 12 7 12
104 185 206 245 337 10 6 307 261 242 209 198 201 198 187 177 176 176 141 84 70 69 57 31 15 31 25 23 44 33 39 19 9 3 7 6 4 7 9 10 0 353 3 3 357 5 27 0 360
228 210 188 208 79 296 149 270 263 229 237 226 221 209 202 195 191 189 187 173 193 214 91 57 41 47 38 53 86 68 1 316 322 342 352 358 3 2 359 359 1 356 357 4 356 4 346 42 346
206 182 166 180 174 314 219 221 279 216 233 233 223 217 213 205 199 197 201 200 207 204 154 74 54 52 45 47 66 94 40 343 353 1 358 358 354 356 357 356 360 353 352 357 358 357 358 350 314
177 84 59 40 76 274 234 193 272 226 222 220 214 214 213 204 199 203 205 194 195 180 79 59 52 36 36 38 45 68 49 357 4 349 341 341 340 349 357 356 353 347 350 346 337 348 343 329 315
69 88 41 8 2 253 219 202 249 242 225 207 205 207 209 204 197 201 207 201 202 184 88 76 66 34 31 39 39 29 18 351 291 313 316 324 331 339 339 343 344 344 342 340 338 341 330 317 306
147 135 154 186 224 275 271 232 252 258 254 209 193 194 197 205 202 202 206 196 193 201 168 122 97 41 24 32 19 14 10 335 329 319 308 305 311 323 324 333 336 339 341 339 335 333 322 323 308
112 154 175 131 53 289 268 275 291 266 290 183 180 190 206 212 208 202 196 193 194 199 199 179 161 82 1 7 3 5 10 353 327 327 338 331 337 336 334 331 333 340 341 334 329 326 327 326 321
145 148 103 115 136 277 286 268 257 271 263 246 225 225 223 215 208 207 205 201 201 200 202 159 147 162 329 348 335 348 350 333 326 340 342 339 340 342 342 348 347 346 341 336 332 329 329 328 324
67 122 122 122 157 175 277 275 232 234 240 228 238 239 222 214 211 207 202 193 187 181 174 161 155 73 4 332 324 340 339 344 346 330 324 325 336 345 348 351 352 352 348 344 338 334 326 323 326
207 199 169 167 235 208 237 271 266 261 263 213 234 256 231 216 205 193 185 168 169 182 177 203 268 335 310 318 329 329 342 347 345 338 333 341 343 348 346 351 352 345 344 342 339 339 333 331 332